User: anonymous   Login
Location: Lombard
(41.8800°N, 88.0080°W)
Time: 21:03:12
(UTC-05:00)
Language:

LilacSat-2 - Orbit

View from above orbital plane
View from above orbital plane
View from above satellite
View from above satellite

Ground track
Ground track

The orbit data is extracted from the following two-line orbital elements,

1 40908U 15049K   22138.46436787  .00004146  00000-0  22114-3 0  9999
2 40908  97.5158 139.3491 0017002 117.5883  35.9766 15.15596636367943
Epoch (UTC): 18 May 2022 11:08:41
Eccentricity: 0.0017002
inclination: 97.5158°
perigee height: 507 km
apogee height: 531 km
right ascension of ascending node: 139.3491°
argument of perigee: 117.5883°
revolutions per day: 15.15596636
mean anomaly at epoch: 35.9766°
orbit number at epoch: 36794

The dashed part of the orbit path shows where the satellite is in the earth's shadow,  

DLR